contact:dominique.lefevre@mio.osupytheas.fr, maurice.libes@osupytheas.fr, didier.mallarino@osupytheas.fr
Project:EMSO http://www.emso-fr.org/EMSO-France
Depth: 2436.0 m
Title:EMSO Ligure Ouest : Data MII capteur CSTAR
DateTime,Latitude,Longitude,Instrument_Serial,Reference_Counts,Signal_Counts,Corrected_Signal_raw_counts,Calculated_Beam_c_inverse_meters,Internal_thermistor_counts
DateTime,Latitude,Longitude,Instrument_Serial,Reference_Counts,Signal_Counts,Corrected_Signal_raw_counts,Calculated_Beam_c_inverse_meters,Internal_thermistor_counts
2019-09-09T00:00:57,42.805,6.029,CST-1368DR,8043,11262,15398,0.056,551
2019-09-09T00:03:58,42.805,6.029,CST-1368DR,8043,11263,15399,0.056,551
2019-09-09T00:07:00,42.805,6.029,CST-1368DR,8043,11263,15399,0.056,551
2019-09-09T00:10:02,42.805,6.029,CST-1368DR,8043,11263,15399,0.056,551
2019-09-09T00:13:03,42.805,6.029,CST-1368DR,8043,11262,15398,0.056,551
2019-09-09T00:16:05,42.805,6.029,CST-1368DR,8043,11260,15395,0.057,551
2019-09-09T00:19:07,42.805,6.029,CST-1368DR,8043,11261,15397,0.056,551
2019-09-09T00:22:08,42.805,6.029,CST-1368DR,8043,11262,15398,0.056,551
2019-09-09T00:25:10,42.805,6.029,CST-1368DR,8043,11263,15399,0.056,551
2019-09-09T00:28:12,42.805,6.029,CST-1368DR,8043,11262,15398,0.056,551
2019-09-09T00:31:14,42.805,6.029,CST-1368DR,8043,11263,15399,0.056,551
2019-09-09T00:34:16,42.805,6.029,CST-1368DR,8043,11263,15399,0.056,551
2019-09-09T00:37:17,42.805,6.029,CST-1368DR,8043,11263,15399,0.056,551
2019-09-09T00:40:19,42.805,6.029,CST-1368DR,8043,11262,15398,0.056,551
2019-09-09T00:43:21,42.805,6.029,CST-1368DR,8043,11262,15398,0.056,551
2019-09-09T00:46:22,42.805,6.029,CST-1368DR,8043,11261,15397,0.056,551
2019-09-09T00:49:24,42.805,6.029,CST-1368DR,8043,11261,15397,0.056,551
2019-09-09T00:52:26,42.805,6.029,CST-1368DR,8043,11261,15397,0.056,551
2019-09-09T00:55:27,42.805,6.029,CST-1368DR,8043,11262,15398,0.056,551
2019-09-09T00:58:29,42.805,6.029,CST-1368DR,8043,11261,15397,0.056,551
2019-09-09T01:01:31,42.805,6.029,CST-1368DR,8043,11262,15397,0.056,551
2019-09-09T01:04:32,42.805,6.029,CST-1368DR,8043,11261,15397,0.056,551
2019-09-09T01:07:34,42.805,6.029,CST-1368DR,8043,11261,15396,0.057,551
2019-09-09T01:10:36,42.805,6.029,CST-1368DR,8043,11263,15399,0.056,551
2019-09-09T01:13:37,42.805,6.029,CST-1368DR,8043,11261,15397,0.056,551
2019-09-09T01:16:39,42.805,6.029,CST-1368DR,8043,11262,15398,0.056,551
2019-09-09T01:19:41,42.805,6.029,CST-1368DR,8043,11260,15395,0.057,551
2019-09-09T01:22:42,42.805,6.029,CST-1368DR,8043,11259,15394,0.057,551
2019-09-09T01:25:44,42.805,6.029,CST-1368DR,8043,11259,15394,0.057,551
2019-09-09T01:28:46,42.805,6.029,CST-1368DR,8043,11261,15397,0.056,551
2019-09-09T01:31:47,42.805,6.029,CST-1368DR,8043,11262,15398,0.056,551
2019-09-09T01:34:49,42.805,6.029,CST-1368DR,8043,11261,15397,0.056,551
2019-09-09T01:37:50,42.805,6.029,CST-1368DR,8043,11262,15397,0.056,551
2019-09-09T01:40:52,42.805,6.029,CST-1368DR,8043,11261,15397,0.056,551
2019-09-09T01:43:54,42.805,6.029,CST-1368DR,8043,11261,15396,0.057,551
2019-09-09T01:46:55,42.805,6.029,CST-1368DR,8042,11261,15398,0.056,551
2019-09-09T01:49:57,42.805,6.029,CST-1368DR,8043,11262,15397,0.056,551
2019-09-09T01:52:59,42.805,6.029,CST-1368DR,8043,11261,15396,0.057,551
2019-09-09T01:56:00,42.805,6.029,CST-1368DR,8043,11261,15397,0.056,551
2019-09-09T01:59:02,42.805,6.029,CST-1368DR,8043,11260,15395,0.057,551
2019-09-09T02:02:04,42.805,6.029,CST-1368DR,8042,11260,15397,0.056,551
2019-09-09T02:05:05,42.805,6.029,CST-1368DR,8043,11261,15397,0.056,551
2019-09-09T02:08:07,42.805,6.029,CST-1368DR,8042,11262,15399,0.056,551
2019-09-09T02:11:09,42.805,6.029,CST-1368DR,8042,11255,15390,0.058,551
2019-09-09T02:14:10,42.805,6.029,CST-1368DR,8043,11261,15397,0.056,551
2019-09-09T02:17:12,42.805,6.029,CST-1368DR,8043,11262,15397,0.056,551
2019-09-09T02:20:14,42.805,6.029,CST-1368DR,8042,11260,15397,0.056,551
2019-09-09T02:23:15,42.805,6.029,CST-1368DR,8042,11260,15397,0.056,551
2019-09-09T02:26:17,42.805,6.029,CST-1368DR,8042,11260,15397,0.056,551
2019-09-09T02:29:19,42.805,6.029,CST-1368DR,8042,11260,15397,0.056,551
2019-09-09T02:32:20,42.805,6.029,CST-1368DR,8042,11260,15397,0.056,551
2019-09-09T02:35:22,42.805,6.029,CST-1368DR,8042,11260,15397,0.056,551
2019-09-09T02:38:24,42.805,6.029,CST-1368DR,8042,11261,15398,0.056,551
2019-09-09T02:41:25,42.805,6.029,CST-1368DR,8042,11260,15397,0.056,551
2019-09-09T02:44:27,42.805,6.029,CST-1368DR,8042,11261,15399,0.056,551
2019-09-09T02:47:29,42.805,6.029,CST-1368DR,8042,11261,15398,0.056,551
2019-09-09T02:50:30,42.805,6.029,CST-1368DR,8042,11261,15398,0.056,551
2019-09-09T02:53:32,42.805,6.029,CST-1368DR,8042,11260,15397,0.056,551
2019-09-09T02:56:33,42.805,6.029,CST-1368DR,8042,11261,15398,0.056,551
2019-09-09T02:59:35,42.805,6.029,CST-1368DR,8042,11261,15398,0.056,551
2019-09-09T03:02:37,42.805,6.029,CST-1368DR,8042,11260,15396,0.057,551
2019-09-09T03:05:38,42.805,6.029,CST-1368DR,8042,11261,15398,0.056,551
2019-09-09T03:08:40,42.805,6.029,CST-1368DR,8042,11260,15397,0.056,551
2019-09-09T03:11:42,42.805,6.029,CST-1368DR,8042,11261,15398,0.056,551
2019-09-09T03:14:44,42.805,6.029,CST-1368DR,8042,11261,15399,0.056,551
2019-09-09T03:17:45,42.805,6.029,CST-1368DR,8042,11259,15396,0.057,551
2019-09-09T03:20:47,42.805,6.029,CST-1368DR,8042,11259,15395,0.057,551
2019-09-09T03:23:49,42.805,6.029,CST-1368DR,8042,11260,15397,0.056,550
2019-09-09T03:26:50,42.805,6.029,CST-1368DR,8042,11260,15397,0.056,551
2019-09-09T03:29:52,42.805,6.029,CST-1368DR,8042,11260,15397,0.056,550
2019-09-09T03:32:53,42.805,6.029,CST-1368DR,8042,11261,15398,0.056,551
2019-09-09T03:35:55,42.805,6.029,CST-1368DR,8042,11260,15397,0.056,551
2019-09-09T03:38:57,42.805,6.029,CST-1368DR,8042,11260,15397,0.056,550
2019-09-09T03:41:58,42.805,6.029,CST-1368DR,8042,11260,15396,0.057,551
2019-09-09T03:45:00,42.805,6.029,CST-1368DR,8042,11261,15398,0.056,551
2019-09-09T03:48:02,42.805,6.029,CST-1368DR,8042,11260,15396,0.057,551
2019-09-09T03:51:03,42.805,6.029,CST-1368DR,8042,11260,15396,0.057,551
2019-09-09T03:54:05,42.805,6.029,CST-1368DR,8042,11260,15397,0.056,551
2019-09-09T03:57:07,42.805,6.029,CST-1368DR,8042,11260,15397,0.056,551
2019-09-09T04:00:08,42.805,6.029,CST-1368DR,8042,11260,15396,0.057,551
2019-09-09T04:03:10,42.805,6.029,CST-1368DR,8042,11260,15397,0.056,551
2019-09-09T04:06:12,42.805,6.029,CST-1368DR,8042,11260,15396,0.057,551
2019-09-09T04:09:13,42.805,6.029,CST-1368DR,8042,11260,15397,0.056,550
2019-09-09T04:12:15,42.805,6.029,CST-1368DR,8042,11260,15397,0.056,551
2019-09-09T04:15:17,42.805,6.029,CST-1368DR,8042,11260,15397,0.056,551
2019-09-09T04:18:18,42.805,6.029,CST-1368DR,8042,11260,15397,0.056,551
2019-09-09T04:21:20,42.805,6.029,CST-1368DR,8042,11259,15395,0.057,551
2019-09-09T04:24:22,42.805,6.029,CST-1368DR,8042,11260,15397,0.056,551
2019-09-09T04:27:23,42.805,6.029,CST-1368DR,8041,11259,15398,0.056,551
2019-09-09T04:30:25,42.805,6.029,CST-1368DR,8041,11259,15398,0.056,551
2019-09-09T04:33:27,42.805,6.029,CST-1368DR,8042,11259,15395,0.057,551
2019-09-09T04:36:28,42.805,6.029,CST-1368DR,8042,11260,15397,0.056,551
2019-09-09T04:39:30,42.805,6.029,CST-1368DR,8041,11259,15398,0.056,551
2019-09-09T04:42:32,42.805,6.029,CST-1368DR,8041,11260,15398,0.056,551
2019-09-09T04:45:33,42.805,6.029,CST-1368DR,8041,11260,15398,0.056,550
2019-09-09T04:48:35,42.805,6.029,CST-1368DR,8042,11260,15397,0.056,551
2019-09-09T04:51:37,42.805,6.029,CST-1368DR,8041,11259,15398,0.056,551
2019-09-09T04:54:38,42.805,6.029,CST-1368DR,8041,11259,15398,0.056,551
2019-09-09T04:57:40,42.805,6.029,CST-1368DR,8041,11259,15398,0.056,551
2019-09-09T05:00:42,42.805,6.029,CST-1368DR,8041,11259,15398,0.056,551
2019-09-09T05:03:43,42.805,6.029,CST-1368DR,8041,11260,15398,0.056,551
2019-09-09T05:06:45,42.805,6.029,CST-1368DR,8041,11257,15394,0.057,551
2019-09-09T05:09:47,42.805,6.029,CST-1368DR,8041,11259,15397,0.056,551
2019-09-09T05:12:48,42.805,6.029,CST-1368DR,8041,11259,15398,0.056,551
2019-09-09T05:15:50,42.805,6.029,CST-1368DR,8041,11259,15398,0.056,551
2019-09-09T05:18:52,42.805,6.029,CST-1368DR,8041,11259,15397,0.056,551
2019-09-09T05:21:53,42.805,6.029,CST-1368DR,8041,11258,15396,0.057,551
2019-09-09T05:24:55,42.805,6.029,CST-1368DR,8041,11258,15396,0.057,551
2019-09-09T05:27:57,42.805,6.029,CST-1368DR,8041,11260,15398,0.056,551
2019-09-09T05:30:58,42.805,6.029,CST-1368DR,8041,11257,15395,0.057,551
2019-09-09T05:34:00,42.805,6.029,CST-1368DR,8041,11258,15396,0.057,551
2019-09-09T05:37:02,42.805,6.029,CST-1368DR,8041,11259,15397,0.056,551
2019-09-09T05:40:03,42.805,6.029,CST-1368DR,8041,11259,15398,0.056,551
2019-09-09T05:43:05,42.805,6.029,CST-1368DR,8041,11259,15397,0.056,551
2019-09-09T05:46:07,42.805,6.029,CST-1368DR,8041,11258,15396,0.057,551
2019-09-09T05:49:08,42.805,6.029,CST-1368DR,8041,11257,15394,0.057,551
2019-09-09T05:52:10,42.805,6.029,CST-1368DR,8041,11258,15396,0.057,551
2019-09-09T05:55:12,42.805,6.029,CST-1368DR,8041,11259,15397,0.056,551
2019-09-09T05:58:13,42.805,6.029,CST-1368DR,8041,11259,15397,0.056,551
2019-09-09T06:01:15,42.805,6.029,CST-1368DR,8041,11258,15396,0.057,551
2019-09-09T06:04:17,42.805,6.029,CST-1368DR,8041,11259,15397,0.056,551
2019-09-09T06:07:18,42.805,6.029,CST-1368DR,8041,11258,15396,0.057,551
2019-09-09T06:10:20,42.805,6.029,CST-1368DR,8041,11258,15396,0.057,551
2019-09-09T06:13:22,42.805,6.029,CST-1368DR,8041,11258,15396,0.057,551
2019-09-09T06:16:23,42.805,6.029,CST-1368DR,8041,11258,15395,0.057,551
2019-09-09T06:19:25,42.805,6.029,CST-1368DR,8041,11258,15396,0.057,551
2019-09-09T06:22:27,42.805,6.029,CST-1368DR,8041,11259,15397,0.056,550
2019-09-09T06:25:28,42.805,6.029,CST-1368DR,8041,11259,15397,0.056,551
2019-09-09T06:28:30,42.805,6.029,CST-1368DR,8041,11258,15396,0.057,551
2019-09-09T06:31:32,42.805,6.029,CST-1368DR,8041,11258,15395,0.057,551
2019-09-09T06:34:33,42.805,6.029,CST-1368DR,8041,11257,15395,0.057,551
2019-09-09T06:37:35,42.805,6.029,CST-1368DR,8041,11258,15395,0.057,551
2019-09-09T06:40:36,42.805,6.029,CST-1368DR,8041,11258,15395,0.057,551
2019-09-09T06:43:38,42.805,6.029,CST-1368DR,8041,11258,15395,0.057,551
2019-09-09T06:46:40,42.805,6.029,CST-1368DR,8041,11258,15395,0.057,551
2019-09-09T06:49:41,42.805,6.029,CST-1368DR,8041,11258,15396,0.057,551
2019-09-09T06:52:43,42.805,6.029,CST-1368DR,8041,11258,15396,0.057,551
2019-09-09T06:55:45,42.805,6.029,CST-1368DR,8041,11258,15396,0.057,551
2019-09-09T06:58:46,42.805,6.029,CST-1368DR,8041,11257,15395,0.057,551
2019-09-09T07:01:48,42.805,6.029,CST-1368DR,8041,11257,15394,0.057,551
2019-09-09T07:04:50,42.805,6.029,CST-1368DR,8041,11257,15395,0.057,551
2019-09-09T07:07:51,42.805,6.029,CST-1368DR,8041,11257,15394,0.057,551
2019-09-09T07:10:53,42.805,6.029,CST-1368DR,8041,11257,15395,0.057,551
2019-09-09T07:13:55,42.805,6.029,CST-1368DR,8041,11257,15395,0.057,551
2019-09-09T07:16:56,42.805,6.029,CST-1368DR,8041,11256,15393,0.058,551
2019-09-09T07:19:58,42.805,6.029,CST-1368DR,8041,11257,15395,0.057,550
2019-09-09T07:22:59,42.805,6.029,CST-1368DR,8040,11257,15396,0.057,551
2019-09-09T07:26:01,42.805,6.029,CST-1368DR,8040,11257,15397,0.056,551
2019-09-09T07:29:03,42.805,6.029,CST-1368DR,8040,11256,15396,0.057,551
2019-09-09T07:32:04,42.805,6.029,CST-1368DR,8040,11257,15397,0.056,551
2019-09-09T07:35:06,42.805,6.029,CST-1368DR,8040,11257,15397,0.056,550
2019-09-09T07:38:08,42.805,6.029,CST-1368DR,8040,11257,15397,0.056,551
2019-09-09T07:41:09,42.805,6.029,CST-1368DR,8040,11257,15397,0.056,551
2019-09-09T07:44:11,42.805,6.029,CST-1368DR,8040,11257,15396,0.057,551
2019-09-09T07:47:13,42.805,6.029,CST-1368DR,8040,11257,15396,0.057,551
2019-09-09T07:50:14,42.805,6.029,CST-1368DR,8040,11257,15397,0.056,551
2019-09-09T07:53:16,42.805,6.029,CST-1368DR,8040,11257,15397,0.056,551
2019-09-09T07:56:17,42.805,6.029,CST-1368DR,8040,11257,15397,0.056,551
2019-09-09T07:59:19,42.805,6.029,CST-1368DR,8040,11256,15395,0.057,551
2019-09-09T08:02:21,42.805,6.029,CST-1368DR,8040,11254,15393,0.058,551
2019-09-09T08:05:22,42.805,6.029,CST-1368DR,8040,11256,15396,0.057,551
2019-09-09T08:08:24,42.805,6.029,CST-1368DR,8040,11257,15397,0.056,551
2019-09-09T08:11:26,42.805,6.029,CST-1368DR,8040,11257,15396,0.057,550
2019-09-09T08:14:27,42.805,6.029,CST-1368DR,8040,11257,15396,0.057,551
2019-09-09T08:17:29,42.805,6.029,CST-1368DR,8040,11257,15396,0.057,551
2019-09-09T08:20:31,42.805,6.029,CST-1368DR,8040,11257,15396,0.057,551
2019-09-09T08:23:32,42.805,6.029,CST-1368DR,8040,11257,15396,0.057,551
2019-09-09T08:26:34,42.805,6.029,CST-1368DR,8040,11257,15396,0.057,551
2019-09-09T08:29:35,42.805,6.029,CST-1368DR,8040,11256,15396,0.057,550
2019-09-09T08:32:37,42.805,6.029,CST-1368DR,8040,11257,15397,0.056,551
2019-09-09T08:35:39,42.805,6.029,CST-1368DR,8040,11255,15393,0.058,551
2019-09-09T08:38:40,42.805,6.029,CST-1368DR,8040,11256,15396,0.057,551
2019-09-09T08:41:42,42.805,6.029,CST-1368DR,8040,11256,15396,0.057,551
2019-09-09T08:44:44,42.805,6.029,CST-1368DR,8040,11255,15394,0.057,551
2019-09-09T08:47:45,42.805,6.029,CST-1368DR,8040,11256,15396,0.057,551
2019-09-09T08:50:47,42.805,6.029,CST-1368DR,8040,11255,15394,0.057,551
2019-09-09T08:53:49,42.805,6.029,CST-1368DR,8040,11257,15396,0.057,551
2019-09-09T08:56:50,42.805,6.029,CST-1368DR,8040,11257,15396,0.057,551
2019-09-09T08:59:52,42.805,6.029,CST-1368DR,8040,11256,15396,0.057,551
2019-09-09T09:02:53,42.805,6.029,CST-1368DR,8040,11256,15396,0.057,551
2019-09-09T09:05:55,42.805,6.029,CST-1368DR,8040,11255,15393,0.058,551
2019-09-09T09:08:57,42.805,6.029,CST-1368DR,8040,11256,15395,0.057,551
2019-09-09T09:11:58,42.805,6.029,CST-1368DR,8040,11256,15395,0.057,551
2019-09-09T09:15:00,42.805,6.029,CST-1368DR,8040,11256,15395,0.057,551
2019-09-09T09:18:02,42.805,6.029,CST-1368DR,8040,11256,15396,0.057,551
2019-09-09T09:21:03,42.805,6.029,CST-1368DR,8040,11256,15395,0.057,550
2019-09-09T09:24:05,42.805,6.029,CST-1368DR,8040,11256,15396,0.057,551
2019-09-09T09:27:06,42.805,6.029,CST-1368DR,8040,11256,15396,0.057,551
2019-09-09T09:30:08,42.805,6.029,CST-1368DR,8040,11257,15396,0.057,551
2019-09-09T09:33:10,42.805,6.029,CST-1368DR,8040,11253,15391,0.058,551
2019-09-09T09:36:11,42.805,6.029,CST-1368DR,8040,11257,15396,0.057,551
2019-09-09T09:39:13,42.805,6.029,CST-1368DR,8039,11256,15396,0.057,551
2019-09-09T09:42:15,42.805,6.029,CST-1368DR,8040,11256,15396,0.057,551
2019-09-09T09:45:16,42.805,6.029,CST-1368DR,8039,11256,15397,0.056,551
2019-09-09T09:48:18,42.805,6.029,CST-1368DR,8040,11256,15395,0.057,551
2019-09-09T09:51:20,42.805,6.029,CST-1368DR,8040,11256,15395,0.057,551
2019-09-09T09:54:21,42.805,6.029,CST-1368DR,8039,11256,15396,0.057,551
2019-09-09T09:57:23,42.805,6.029,CST-1368DR,8039,11256,15397,0.056,551
2019-09-09T10:00:25,42.805,6.029,CST-1368DR,8039,11254,15394,0.057,551
2019-09-09T10:03:26,42.805,6.029,CST-1368DR,8040,11256,15395,0.057,551
2019-09-09T10:06:28,42.805,6.029,CST-1368DR,8040,11256,15395,0.057,551
2019-09-09T10:09:29,42.805,6.029,CST-1368DR,8040,11256,15395,0.057,551
2019-09-09T10:12:31,42.805,6.029,CST-1368DR,8040,11254,15392,0.058,551
2019-09-09T10:15:33,42.805,6.029,CST-1368DR,8039,11255,15396,0.057,551
2019-09-09T10:18:34,42.805,6.029,CST-1368DR,8039,11255,15396,0.057,551
2019-09-09T10:21:36,42.805,6.029,CST-1368DR,8039,11255,15396,0.057,551
2019-09-09T10:24:38,42.805,6.029,CST-1368DR,8039,11256,15396,0.057,551
2019-09-09T10:27:39,42.805,6.029,CST-1368DR,8040,11253,15391,0.058,551
2019-09-09T10:30:41,42.805,6.029,CST-1368DR,8039,11256,15397,0.056,551
2019-09-09T10:33:43,42.805,6.029,CST-1368DR,8039,11256,15396,0.057,551
2019-09-09T10:36:44,42.805,6.029,CST-1368DR,8039,11254,15394,0.057,551
2019-09-09T10:39:46,42.805,6.029,CST-1368DR,8039,11255,15395,0.057,551
2019-09-09T10:42:47,42.805,6.029,CST-1368DR,8039,11255,15395,0.057,551
2019-09-09T10:45:49,42.805,6.029,CST-1368DR,8039,11254,15394,0.057,551
2019-09-09T10:48:51,42.805,6.029,CST-1368DR,8039,11256,15396,0.057,551
2019-09-09T10:51:52,42.805,6.029,CST-1368DR,8039,11254,15395,0.057,551
2019-09-09T10:54:54,42.805,6.029,CST-1368DR,8039,11254,15394,0.057,551
2019-09-09T10:57:56,42.805,6.029,CST-1368DR,8039,11255,15395,0.057,550
2019-09-09T11:00:58,42.805,6.029,CST-1368DR,8039,11255,15395,0.057,551
2019-09-09T11:03:59,42.805,6.029,CST-1368DR,8039,11255,15395,0.057,551
2019-09-09T11:07:01,42.805,6.029,CST-1368DR,8039,11256,15396,0.057,551
2019-09-09T11:10:03,42.805,6.029,CST-1368DR,8039,11253,15393,0.058,551
2019-09-09T11:13:04,42.805,6.029,CST-1368DR,8039,11255,15395,0.057,551
2019-09-09T11:16:06,42.805,6.029,CST-1368DR,8039,11254,15394,0.057,551
2019-09-09T11:19:07,42.805,6.029,CST-1368DR,8039,11255,15395,0.057,551
2019-09-09T11:22:09,42.805,6.029,CST-1368DR,8039,11255,15395,0.057,551
2019-09-09T11:25:11,42.805,6.029,CST-1368DR,8039,11254,15395,0.057,551
2019-09-09T11:28:13,42.805,6.029,CST-1368DR,8039,11255,15395,0.057,551
2019-09-09T11:31:15,42.805,6.029,CST-1368DR,8039,11255,15395,0.057,551
2019-09-09T11:34:17,42.805,6.029,CST-1368DR,8039,11255,15396,0.057,551
2019-09-09T11:37:18,42.805,6.029,CST-1368DR,8039,11255,15395,0.057,550
2019-09-09T11:40:20,42.805,6.029,CST-1368DR,8039,11254,15394,0.057,550
2019-09-09T11:43:22,42.805,6.029,CST-1368DR,8039,11255,15395,0.057,551
2019-09-09T11:46:23,42.805,6.029,CST-1368DR,8039,11254,15394,0.057,551
2019-09-09T11:49:25,42.805,6.029,CST-1368DR,8039,11254,15395,0.057,551
2019-09-09T11:52:27,42.805,6.029,CST-1368DR,8039,11253,15393,0.058,551
2019-09-09T11:55:28,42.805,6.029,CST-1368DR,8039,11254,15394,0.057,551
2019-09-09T11:58:30,42.805,6.029,CST-1368DR,8039,11254,15395,0.057,551
2019-09-09T12:01:32,42.805,6.029,CST-1368DR,8039,11255,15395,0.057,551
2019-09-09T12:04:33,42.805,6.029,CST-1368DR,8039,11254,15395,0.057,551
2019-09-09T12:07:35,42.805,6.029,CST-1368DR,8039,11250,15389,0.059,550
2019-09-09T12:10:36,42.805,6.029,CST-1368DR,8039,11255,15395,0.057,551
2019-09-09T12:13:38,42.805,6.029,CST-1368DR,8039,11255,15395,0.057,551
2019-09-09T12:16:40,42.805,6.029,CST-1368DR,8039,11254,15394,0.057,551
2019-09-09T12:19:41,42.805,6.029,CST-1368DR,8039,11255,15395,0.057,551
2019-09-09T12:22:43,42.805,6.029,CST-1368DR,8039,11253,15393,0.058,550
2019-09-09T12:25:45,42.805,6.029,CST-1368DR,8039,11255,15395,0.057,551
2019-09-09T12:28:46,42.805,6.029,CST-1368DR,8039,11254,15394,0.057,551
2019-09-09T12:31:48,42.805,6.029,CST-1368DR,8039,11255,15395,0.057,551
2019-09-09T12:34:49,42.805,6.029,CST-1368DR,8038,11255,15397,0.056,551
2019-09-09T12:37:51,42.805,6.029,CST-1368DR,8038,11254,15396,0.057,551
2019-09-09T12:40:53,42.805,6.029,CST-1368DR,8038,11254,15396,0.057,551
2019-09-09T12:43:54,42.805,6.029,CST-1368DR,8038,11254,15396,0.057,551
2019-09-09T12:46:56,42.805,6.029,CST-1368DR,8038,11255,15397,0.056,551
2019-09-09T12:49:58,42.805,6.029,CST-1368DR,8038,11254,15396,0.057,551
2019-09-09T12:52:59,42.805,6.029,CST-1368DR,8038,11253,15394,0.057,551
2019-09-09T12:56:01,42.805,6.029,CST-1368DR,8038,11253,15395,0.057,551
2019-09-09T12:59:03,42.805,6.029,CST-1368DR,8038,11254,15396,0.057,551
2019-09-09T13:02:04,42.805,6.029,CST-1368DR,8038,11252,15393,0.058,551
2019-09-09T13:05:06,42.805,6.029,CST-1368DR,8038,11253,15395,0.057,551
2019-09-09T13:08:07,42.805,6.029,CST-1368DR,8038,11254,15395,0.057,550
2019-09-09T13:11:09,42.805,6.029,CST-1368DR,8038,11254,15395,0.057,551
2019-09-09T13:14:11,42.805,6.029,CST-1368DR,8038,11254,15396,0.057,551
2019-09-09T13:17:12,42.805,6.029,CST-1368DR,8038,11253,15395,0.057,551
2019-09-09T13:20:14,42.805,6.029,CST-1368DR,8038,11255,15397,0.056,551
2019-09-09T13:23:16,42.805,6.029,CST-1368DR,8038,11254,15395,0.057,551
2019-09-09T13:26:17,42.805,6.029,CST-1368DR,8038,11254,15395,0.057,551
2019-09-09T13:29:19,42.805,6.029,CST-1368DR,8038,11254,15396,0.057,551
2019-09-09T13:32:21,42.805,6.029,CST-1368DR,8038,11251,15391,0.058,551
2019-09-09T13:35:22,42.805,6.029,CST-1368DR,8038,11254,15395,0.057,551
2019-09-09T13:38:24,42.805,6.029,CST-1368DR,8038,11253,15395,0.057,551
2019-09-09T13:41:26,42.805,6.029,CST-1368DR,8038,11254,15396,0.057,550
2019-09-09T13:44:27,42.805,6.029,CST-1368DR,8038,11250,15391,0.058,551
2019-09-09T13:47:29,42.805,6.029,CST-1368DR,8038,11254,15396,0.057,551
2019-09-09T13:50:30,42.805,6.029,CST-1368DR,8038,11254,15396,0.057,550
2019-09-09T13:53:32,42.805,6.029,CST-1368DR,8038,11253,15394,0.057,551
2019-09-09T13:56:34,42.805,6.029,CST-1368DR,8038,11253,15394,0.057,551
2019-09-09T13:59:35,42.805,6.029,CST-1368DR,8038,11254,15395,0.057,551
2019-09-09T14:02:37,42.805,6.029,CST-1368DR,8038,11253,15395,0.057,551
2019-09-09T14:05:39,42.805,6.029,CST-1368DR,8038,11254,15395,0.057,551
2019-09-09T14:08:40,42.805,6.029,CST-1368DR,8038,11254,15395,0.057,551
2019-09-09T14:11:42,42.805,6.029,CST-1368DR,8038,11253,15395,0.057,551
2019-09-09T14:14:44,42.805,6.029,CST-1368DR,8038,11253,15394,0.057,551
2019-09-09T14:17:45,42.805,6.029,CST-1368DR,8038,11253,15394,0.057,551
2019-09-09T14:20:47,42.805,6.029,CST-1368DR,8038,11253,15394,0.057,550
2019-09-09T14:23:48,42.805,6.029,CST-1368DR,8038,11250,15391,0.058,551
2019-09-09T14:26:50,42.805,6.029,CST-1368DR,8038,11254,15395,0.057,551
2019-09-09T14:29:52,42.805,6.029,CST-1368DR,8038,11254,15396,0.057,551
2019-09-09T14:32:53,42.805,6.029,CST-1368DR,8038,11254,15395,0.057,551
2019-09-09T14:35:55,42.805,6.029,CST-1368DR,8038,11253,15394,0.057,551
2019-09-09T14:38:57,42.805,6.029,CST-1368DR,8038,11253,15394,0.057,550
2019-09-09T14:41:58,42.805,6.029,CST-1368DR,8038,11253,15394,0.057,550
2019-09-09T14:45:00,42.805,6.029,CST-1368DR,8038,11253,15395,0.057,551
2019-09-09T14:48:02,42.805,6.029,CST-1368DR,8038,11253,15394,0.057,551
2019-09-09T14:51:03,42.805,6.029,CST-1368DR,8038,11253,15394,0.057,551
2019-09-09T14:54:05,42.805,6.029,CST-1368DR,8038,11253,15395,0.057,551
2019-09-09T14:57:07,42.805,6.029,CST-1368DR,8038,11253,15395,0.057,551
2019-09-09T15:00:08,42.805,6.029,CST-1368DR,8038,11253,15394,0.057,551
2019-09-09T15:03:10,42.805,6.029,CST-1368DR,8038,11253,15394,0.057,551
2019-09-09T15:06:11,42.805,6.029,CST-1368DR,8038,11252,15393,0.058,551
2019-09-09T15:09:13,42.805,6.029,CST-1368DR,8038,11252,15393,0.058,551
2019-09-09T15:12:15,42.805,6.029,CST-1368DR,8038,11252,15394,0.057,551
2019-09-09T15:15:16,42.805,6.029,CST-1368DR,8038,11252,15394,0.057,551
2019-09-09T15:18:18,42.805,6.029,CST-1368DR,8038,11253,15395,0.057,551
2019-09-09T15:21:20,42.805,6.029,CST-1368DR,8038,11253,15395,0.057,551
2019-09-09T15:24:21,42.805,6.029,CST-1368DR,8038,11252,15393,0.058,551
2019-09-09T15:27:23,42.805,6.029,CST-1368DR,8038,11253,15394,0.057,551
2019-09-09T15:30:24,42.805,6.029,CST-1368DR,8038,11252,15393,0.058,551
2019-09-09T15:33:26,42.805,6.029,CST-1368DR,8037,11252,15395,0.057,551
2019-09-09T15:36:28,42.805,6.029,CST-1368DR,8037,11253,15396,0.057,551
2019-09-09T15:39:29,42.805,6.029,CST-1368DR,8037,11252,15395,0.057,551
2019-09-09T15:42:31,42.805,6.029,CST-1368DR,8037,11253,15396,0.057,551
2019-09-09T15:45:33,42.805,6.029,CST-1368DR,8037,11252,15395,0.057,551
2019-09-09T15:48:34,42.805,6.029,CST-1368DR,8037,11248,15389,0.059,551
2019-09-09T15:51:36,42.805,6.029,CST-1368DR,8037,11254,15397,0.056,551
2019-09-09T15:54:38,42.805,6.029,CST-1368DR,8037,11252,15395,0.057,551
2019-09-09T15:57:39,42.805,6.029,CST-1368DR,8037,11252,15395,0.057,551
2019-09-09T16:00:41,42.805,6.029,CST-1368DR,8037,11253,15396,0.057,551
2019-09-09T16:03:43,42.805,6.029,CST-1368DR,8037,11253,15397,0.056,551
2019-09-09T16:06:44,42.805,6.029,CST-1368DR,8037,11253,15396,0.057,551
2019-09-09T16:09:46,42.805,6.029,CST-1368DR,8037,11253,15396,0.057,551
2019-09-09T16:12:47,42.805,6.029,CST-1368DR,8037,11254,15397,0.056,551
2019-09-09T16:15:49,42.805,6.029,CST-1368DR,8037,11254,15397,0.056,551
2019-09-09T16:18:51,42.805,6.029,CST-1368DR,8037,11253,15397,0.056,551
2019-09-09T16:21:52,42.805,6.029,CST-1368DR,8037,11253,15396,0.057,551
2019-09-09T16:24:54,42.805,6.029,CST-1368DR,8037,11253,15396,0.057,551
2019-09-09T16:27:56,42.805,6.029,CST-1368DR,8037,11253,15396,0.057,550
2019-09-09T16:30:57,42.805,6.029,CST-1368DR,8037,11253,15396,0.057,551
2019-09-09T16:33:59,42.805,6.029,CST-1368DR,8037,11252,15395,0.057,551
2019-09-09T16:37:01,42.805,6.029,CST-1368DR,8037,11253,15396,0.057,551